Find AE1a

NORAD ID: 68479 Int'l Des: NNA 2026-067 Owner: ARKE Country: J operational
LEOCIRCULARRETROGRADESSO

Live Position

Loading 3D Globe...

About AE1a

Description loading...

Upcoming Passes

Passes for default location (London). Set your location on the main map for personalized predictions.

Altitude History

Loading altitude history...

Two-Line Element Set

1 68479U 26067BR 26107.80879209 .00002095 00000-0 21163-3 0 9996
2 68479 97.7510 67.0165 0003106 92.8780 267.2794 14.92098051 2721
Epoch: Apr 17, 2026 • Age: 78 hours

Current Status

Altitude 618.5 km
Velocity 7.55 km/s
Sub-Earth Point -65.96°S, 3.13°W
Launch Date Mar 30, 2026
Age 22 days
Type other

Technical Details

Classification Payload
Mass 10.00 kg
Dry Mass 10.00 kg
Total Mass 10.00 kg
Length 0.30 m
Diameter 0.20 m
Span 0.30 m
Shape Box+ 2 pan
Manufacturer ARKE
Bus Type Cubesat 6U
Phase Status In Orbit
Owner/State ARKE/J

Most Searched